Location: Unspecified
(0.0000°N, 0.0000°E)
Time: 10:32:25
(UTC+02:00)

PROBA 2 - Visible Passes

Search period start: 24 September 2017 00:00
Search period end: 04 October 2017 00:00
Orbit: 706 x 726 km, 98.3° (Epoch: 23 September)

Date Brightness Start Highest point End Pass type
(mag) Time Alt. Az. Time Alt. Az. Time Alt. Az.
25 Sep ? 20:54:46 10° NNW 20:59:00 31° WNW 21:03:16 10° SW visible
27 Sep ? 20:50:25 10° NNW 20:54:48 35° WNW 20:59:13 10° SW visible
29 Sep ? 20:46:05 10° N 20:50:35 39° WNW 20:55:08 10° SSW visible
01 Oct ? 20:41:45 10° N 20:46:23 44° WNW 20:51:01 10° SSW visible
02 Oct ? 21:31:51 10° WNW 21:33:07 11° WNW 21:34:22 10° W visible
03 Oct ? 20:37:27 10° N 20:42:10 51° WNW 20:46:54 10° SSW visible
